Location: Dillon
(41.1766°N, 107.0923°W)
Time: 07:39:21
(UTC+00:00)

QB50P2 - Pass Details

Date: 28 June 2022
Orbit: 590 x 605 km, 97.9° (Epoch: 09 August)

Event Time Altitude Azimuth Distance (km) Brightness Sun altitude
Rises 07:38:29 0° 27° (NNE) 2,855 ? -25.2°
Reaches altitude 10° 07:41:05 10° 43° (NE) 1,950 ? -25.2°
Enters shadow 07:44:19 22° 93° (E) 1,343 ? -25.1°
